223  
ASUS45 KBOI 192310  
RWRID  
 
IDAHO REGIONAL WEATHER ROUNDUP  
NATIONAL WEATHER SERVICE BOISE ID  
500 PM MDT SUN MAY 19 2019  
 
NOTE: "FAIR" INDICATES FEW OR NO CLOUDS BELOW 12000 FEET  
WITH NO SIGNIFICANT WEATHER AND/OR S TO VISIBILITY
 
 
IDZ012-014-200000-  
SOUTHWEST IDAHO  
 
 
CITY SKY/WX TMP DP RH WIND PRES REMARKS
 
BOISE CLOUDY 54 49 83 S14 29.55S  
CALDWELL TSTM 53 49 86 SW15 29.56F  
MOUNTAIN HOME LGT RAIN 51 51 100 CALM 29.57R  

 
 
IDZ016-017-200000-  
SOUTHCENTRAL IDAHO  
 
 
CITY SKY/WX TMP DP RH WIND PRES REMARKS
 
BURLEY LGT RAIN 53 43 68 NE9 29.55F  
JEROME LGT RAIN 48 45 89 SW12 29.57R  
TWIN FALLS LGT RAIN 48 43 82 W16 29.57R  

 
 
IDZ019>023-200000-  
SOUTHEAST IDAHO  
 
 
CITY SKY/WX TMP DP RH WIND PRES REMARKS
 
IDAHO FALLS CLOUDY 53 40 61 NE3 29.62F  
POCATELLO LGT RAIN 54 39 57 SW5 29.60F  
REXBURG CLOUDY 55 37 50 S16G23 29.63F  

 
 
IDZ006-010-011-018-031-032-200000-  
CENTRAL IDAHO MOUNTAINS  
 
 
CITY SKY/WX TMP DP RH WIND PRES REMARKS
 
MCCALL CLOUDY 51 40 65 S10 29.56S  
HAILEY LGT RAIN 45 39 81 NW9 29.64F  
STANLEY N/A 50 35 56 S5 29.60F  
SALMON CLOUDY 55 36 48 S20G25 29.64F  
CHALLIS CLOUDY 51 43 74 N12 29.61S  

 
 
IDZ002-004-006-007-026-200000-  
NORTHERN IDAHO  
 
 
CITY SKY/WX TMP DP RH WIND PRES REMARKS
 
LEWISTON CLOUDY 74 43 32 VRB3 29.54F  
LOWELL N/A 69 41 36 N8 29.55S  
COEUR D'ALENE MOSUNNY 63 39 41 NE20G25 29.72S  
MULLAN PASS CLOUDY 39 32 76 CALM 29.78S  

 
 
 
CLICK HERE TO GO TO PREVIOUS BULLETINS.

The Nexlab ID Page Main Text Page